Weather History for Philip, SD

Change the Weather History Date:

Sunday, November 4, 2012

  Actual Average Record
Temperature  
Mean Temperature 38 °F 40 °F  
Max Temperature 48 °F 53 °F 79 °F (1975)
Min Temperature 27 °F 26 °F 2 °F (1991)
Degree Days  
Heating Degree Days 27 25  
Month to date heating degree days 99 98  
Since 1 July heating degree days 726 801  
Cooling Degree Days 0 0  
Month to date cooling degree days 0 0  
Year to date cooling degree days 1202 818  
Moisture  
Dew Point 33 °F    
Average Humidity 90    
Maximum Humidity 100    
Minimum Humidity 80    
Precipitation  
Precipitation 0.05 in 0.03 in 0.19 in (1998)
Month to date precipitation 0.05 0.12  
Year to date precipitation 6.85 16.42  
Sea Level Pressure  
Sea Level Pressure 30.15 in    
Wind  
Wind Speed 4 mph (NE)    
Max Wind Speed 10 mph    
Max Gust Speed 13 mph    
Visibility 9 miles    
Events Rain    
T = Trace of Precipitation, MM = Missing Value Source: NWS Daily Summary

Daily Weather History Graph

Daily Weather History Graph

Search for Another Location

Airport:

Trip Planner

Search our weather history database for the weather conditions in past years. The results will help you decide how hot, cold, wet, or windy it might be!

Date:

Astronomy

Nov. 04, 2012 Rise Set
Actual Time 6:27 AM MST 4:31 PM MST
Civil Twilight 5:57 AM MST 5:02 PM MST
Nautical Twilight 5:22 AM MST 5:36 PM MST
Astronomical Twilight 4:49 AM MST 6:10 PM MST
Moon 9:10 PM MST (11/4) 11:14 AM MST (11/4)
Length of Visible Light 11h 04m
Length of Day
10h 04m
Waning Gibbous, 71% of the Moon is Illuminated
Nov 4
Waning Gibbous
Nov 6
Last Quarter
Nov 13
New
Nov 20
First Quarter
Nov 28
Full

Hourly Weather History & Observations

Time (MST) Temp. Windchill Dew Point Humidity Pressure Visibility Wind Dir Wind Speed Gust Speed Precip Events Conditions
12:55 AM 28.9 °F 21.1 °F 28.0 °F 96% 30.17 in 9.0 mi East 8.1 mph - N/A   Clear
1:48 AM 28.4 °F 24.6 °F 26.6 °F 93% 30.14 in 10.0 mi East 3.5 mph - N/A   Scattered Clouds
1:55 AM 28.0 °F 24.2 °F 26.1 °F 92% 30.17 in 10.0 mi East 3.5 mph - N/A   Mostly Cloudy
1:55 AM 28.0 °F 24.2 °F 27.0 °F 96% 30.17 in 10.0 mi ENE 3.5 mph - N/A   Overcast
2:55 AM 28.9 °F 25.2 °F 28.0 °F 96% 30.15 in 10.0 mi East 3.5 mph - N/A   Mostly Cloudy
3:37 AM 28.4 °F 24.6 °F 26.6 °F 93% 30.11 in 10.0 mi ENE 3.5 mph - N/A   Partly Cloudy
3:55 AM 28.9 °F 23.9 °F 28.0 °F 96% 30.14 in 10.0 mi East 4.6 mph - N/A   Clear
4:55 AM 30.0 °F 23.2 °F 28.0 °F 92% 30.14 in 10.0 mi East 6.9 mph - N/A   Clear
5:46 AM 30.2 °F 24.3 °F 28.4 °F 93% 30.10 in 10.0 mi East 5.8 mph - N/A   Overcast
5:55 AM 30.0 °F 23.2 °F 28.9 °F 96% 30.15 in 10.0 mi East 6.9 mph - N/A   Overcast
6:23 AM 30.2 °F 24.3 °F 28.4 °F 93% 30.10 in 9.0 mi East 5.8 mph - N/A   Overcast
6:55 AM 30.0 °F 21.1 °F 28.9 °F 96% 30.13 in 6.0 mi East 10.4 mph - N/A   Overcast
7:55 AM 30.9 °F 24.3 °F 30.0 °F 96% 30.15 in 6.0 mi East 6.9 mph - N/A   Overcast
8:55 AM 33.1 °F 30.0 °F 32.0 °F 96% 30.15 in 7.0 mi Variable 3.5 mph - N/A   Overcast
9:55 AM 34.0 °F 29.8 °F 32.0 °F 92% 30.15 in 9.0 mi East 4.6 mph - 0.00 in Rain Light Rain
10:39 AM 35.6 °F - 32.0 °F 87% 30.12 in 8.0 mi Calm Calm - 0.01 in Rain Light Rain
10:47 AM 35.6 °F - 32.0 °F 87% 30.11 in 7.0 mi Calm Calm - 0.01 in Rain Light Rain
10:55 AM 35.1 °F - 33.1 °F 92% 30.17 in 6.0 mi Calm Calm - 0.01 in Rain Light Rain
11:13 AM 35.6 °F - 33.8 °F 93% 30.11 in 5.0 mi Calm Calm - 0.01 in Rain Light Rain
11:38 AM 35.6 °F 30.7 °F 33.8 °F 93% 30.10 in 6.0 mi WSW 5.8 mph - 0.03 in Rain Light Rain
11:55 AM 36.0 °F 30.3 °F 34.0 °F 93% 30.14 in 8.0 mi WSW 6.9 mph - 0.03 in Rain Light Rain
12:29 PM 37.4 °F 34.9 °F 35.6 °F 93% 30.06 in 10.0 mi SSW 3.5 mph - 0.00 in   Mostly Cloudy
12:55 PM 39.0 °F 33.4 °F 37.0 °F 93% 30.12 in 10.0 mi West 8.1 mph - 0.00 in Rain Light Rain
1:55 PM 43.0 °F - 39.9 °F 89% 30.11 in 10.0 mi Calm Calm - 0.01 in   Overcast
2:55 PM 48.0 °F - 42.1 °F 80% 30.09 in 10.0 mi Calm Calm - N/A   Scattered Clouds
3:55 PM 46.9 °F - 42.1 °F 83% 30.10 in 10.0 mi Calm Calm - N/A   Mostly Cloudy
4:55 PM 44.1 °F - 42.1 °F 93% 30.12 in 10.0 mi Calm Calm - 0.00 in   Mostly Cloudy
5:55 PM 41.0 °F 38.0 °F 39.0 °F 93% 30.14 in 9.0 mi East 4.6 mph - N/A   Mostly Cloudy
6:55 PM 39.9 °F 35.1 °F 37.9 °F 93% 30.18 in 10.0 mi NE 6.9 mph - N/A   Clear
7:55 PM 36.0 °F - 35.1 °F 97% 30.22 in 8.0 mi Calm Calm - N/A   Scattered Clouds
8:30 PM 35.6 °F 29.9 °F 35.6 °F 100% 30.18 in 10.0 mi NNW 6.9 mph - N/A   Mostly Cloudy
8:42 PM 37.4 °F 33.8 °F 35.6 °F 93% 30.19 in 10.0 mi NNW 4.6 mph - N/A   Overcast
8:50 PM 37.4 °F 34.9 °F 37.4 °F 100% 30.19 in 10.0 mi NNE 3.5 mph - N/A   Overcast
8:55 PM 37.9 °F 34.4 °F 37.0 °F 97% 30.24 in 10.0 mi NNW 4.6 mph - N/A   Overcast
9:55 PM 39.0 °F 34.8 °F 37.0 °F 93% 30.25 in 10.0 mi NNE 5.8 mph - N/A   Overcast
10:05 PM 39.2 °F 35.0 °F 37.4 °F 93% 30.20 in 10.0 mi North 5.8 mph - N/A   Overcast
10:12 PM 39.2 °F 35.9 °F 37.4 °F 93% 30.21 in 10.0 mi North 4.6 mph - N/A   Overcast
10:55 PM 39.0 °F 36.8 °F 37.9 °F 96% 30.25 in 9.0 mi NW 3.5 mph - N/A   Overcast